Location: Unspecified
(50.7693°N, 0.0000°E)
Time: 07:12:05
(UTC+00:00)

Transit 2A - Pass Details

Date: 21 August 2020
Orbit: 591 x 967 km, 66.7° (Epoch: 20 September)

Event Time Altitude Azimuth Distance (km) Brightness Sun altitude
Rises 23:10:36 0° 315° (NW) 3,657 10.4 -26.5°
Reaches altitude 10° 23:13:44 10° 329° (NNW) 2,717 9.7 -26.6°
Maximum altitude 23:18:49 24° 21° (NNE) 1,877 8.5 -26.8°
Drops below altitude 10° 23:23:48 10° 74° (ENE) 2,652 8.8 -27.0°
Sets 23:26:49 0° 88° (E) 3,549 9.4 -27.0°
